Flight Track Log - Related Links

Times and Time Zones

All times are in EDT time to prevent confusion due to time zone crossing. See the UAL119 flight status page for this flight to view local times or setup timezone preferences in your user account.

Time Position Orientation Groundspeed Altitude Reporting Facility
EDT Latitude Longitude Course Direction KTS MPH feet Rate Location/Type
Fri 16:59:22 40.6380 -74.1910 195° South 182 209 2,300  Level FlightAware ADS-B
Fri 16:59:37 40.6310 -74.2060 238° Southwest 211 243 2,600 1,588 Climbing FlightAware ADS-B
Fri 16:59:56 40.6357 -74.2348 282° West 249 287 3,200 1,935 Climbing FlightAware ADS-B
Fri 17:00:08 40.6455 -74.2482 314° West 269 310 3,600 2,400 Climbing FlightAware ADS-B
Fri 17:00:36 40.6803 -74.2570 349° North 269 310 4,800 2,535 Climbing FlightAware ADS-B
Fri 17:01:19 40.7217 -74.2003 46° Northeast 303 349 6,600 2,571 Climbing FlightAware ADS-B
Fri 17:01:25 40.7251 -74.1895 67° East 321 369 6,900 2,727 Climbing FlightAware ADS-B
Fri 17:01:41 40.7340 -74.1608 68° East 323 372 7,600 2,842 Climbing FlightAware ADS-B
Fri 17:01:44 40.7363 -74.1543 65° Northeast 324 373 7,800 2,880 Climbing FlightAware ADS-B
Fri 17:02:06 40.7495 -74.1140 67° East 326 375 8,800 2,684 Climbing FlightAware ADS-B
Fri 17:02:22 40.7593 -74.0856 66° East 329 379 9,500 2,640 Climbing FlightAware ADS-B
Fri 17:02:31 40.7650 -74.0695 65° Northeast 333 383 9,900 1,077 Climbing FlightAware ADS-B
Fri 17:03:01 40.7857 -74.0111 65° Northeast 374 430 10,200 563 Climbing FlightAware ADS-B
Fri 17:03:03 40.7871 -74.0073 64° Northeast 372 428 10,200 167 Level FlightAware ADS-B
Fri 17:03:37 40.8120 -73.9360 65° Northeast 398 458 10,300 1,031 Climbing FlightAware ADS-B
Fri 17:04:07 40.8357 -73.8695 65° Northeast 382 440 11,300 1,839 Climbing FlightAware ADS-B
Fri 17:04:39 40.8600 -73.8046 64° Northeast 353 406 12,200 621 Climbing FlightAware ADS-B
Fri 17:05:34 40.9002 -73.6996 63° Northeast 352 405 12,200 66 Level FlightAware ADS-B
Fri 17:06:10 40.9265 -73.6314 63° Northeast 352 405 12,300 575 Climbing FlightAware ADS-B
Fri 17:06:47 40.9661 -73.5684 50° Northeast 357 411 12,900 1,100 Climbing FlightAware ADS-B
Fri 17:07:10 40.9996 -73.5447 28° Northeast 369 425 13,400 1,100 Climbing FlightAware ADS-B
Fri 17:07:47 41.0560 -73.5170 20° North 401 461 14,000 1,294 Climbing FlightAware ADS-B
Fri 17:08:01 41.0866 -73.5025 20° North 392 451 14,500 1,867 Climbing FlightAware ADS-B
Fri 17:08:32 41.1370 -73.4780 20° North 422 486 15,400 1,182 Climbing FlightAware ADS-B
Fri 17:09:07 41.1980 -73.4480 20° North 426 490 15,800 2,333 Climbing FlightAware ADS-B
Fri 17:09:26 41.2439 -73.4263 20° North 439 505 17,500 3,240 Climbing FlightAware ADS-B
Fri 17:09:57 41.2970 -73.4000 20° North 442 509 18,500 2,229 Climbing FlightAware ADS-B
Fri 17:10:01 41.3117 -73.3930 20° North 445 512 18,800 2,100 Climbing FlightAware ADS-B
Fri 17:10:37 41.3760 -73.3610 20° North 451 519 19,900 1,953 Climbing FlightAware ADS-B
Fri 17:10:44 41.3946 -73.3523 19° North 456 525 20,200 1,784 Climbing FlightAware ADS-B
Fri 17:11:14 41.4530 -73.3128 27° Northeast 468 539 21,000 1,773 Climbing FlightAware ADS-B
Fri 17:12:12 41.5550 -73.2210 34° Northeast 475 547 22,800 1,858 Climbing FlightAware ADS-B
Fri 17:13:07 41.6540 -73.1370 32° Northeast 479 551 24,500 1,800 Climbing FlightAware ADS-B
Fri 17:13:52 41.7420 -73.0590 33° Northeast 481 554 25,800 1,200 Climbing FlightAware ADS-B
Fri 17:14:32 41.8090 -72.9970 35° Northeast 486 559 26,200 300 Climbing FlightAware ADS-B
Fri 17:15:12 41.8730 -72.9400 34° Northeast 486 559 26,200  Level FlightAware ADS-B
Fri 17:15:52 41.9360 -72.8820 34° Northeast 486 559 26,200 1,533 Level FlightAware ADS-B
Fri 17:16:42 42.0690 -72.7590 34° Northeast 534 615 28,500 2,133 Climbing FlightAware ADS-B
Fri 17:17:22 42.1520 -72.6830 34° Northeast 540 621 29,400 1,624 Climbing FlightAware ADS-B
Fri 17:18:07 42.2420 -72.5990 35° Northeast 532 612 30,800 1,694 Climbing FlightAware ADS-B
Fri 17:18:47 42.3230 -72.5240 34° Northeast 529 609 31,800 1,650 Climbing FlightAware ADS-B
Fri 17:19:27 42.4040 -72.4490 34° Northeast 523 602 33,000 1,765 Climbing FlightAware ADS-B
Fri 17:20:12 42.4940 -72.3640 35° Northeast 515 593 34,300 1,412 Climbing FlightAware ADS-B
Fri 17:20:52 42.5710 -72.2920 35° Northeast 515 593 35,000 494 Climbing FlightAware ADS-B
Fri 17:21:37 42.6590 -72.2090 35° Northeast 520 598 35,000  Level FlightAware ADS-B
Fri 17:22:17 42.7370 -72.1350 35° Northeast 521 600 35,000  Level FlightAware ADS-B
Fri 17:22:57 42.8180 -72.0580 35° Northeast 525 604 35,000  Level FlightAware ADS-B
Fri 17:23:42 42.9090 -71.9720 35° Northeast 528 608 35,000  Level FlightAware ADS-B
Fri 17:24:22 42.9900 -71.8950 35° Northeast 527 606 35,000  Level FlightAware ADS-B
Fri 17:25:07 43.0760 -71.8120 35° Northeast 529 609 35,000  Level FlightAware ADS-B
Fri 17:25:47 43.1580 -71.7340 35° Northeast 528 608 35,000  Level FlightAware ADS-B
Fri 17:26:27 43.2370 -71.6570 35° Northeast 527 606 35,000  Level FlightAware ADS-B
Fri 17:27:12 43.3280 -71.5700 35° Northeast 524 603 35,000  Level FlightAware ADS-B
Fri 17:27:52 43.4080 -71.4920 35° Northeast 521 600 35,000  Level FlightAware ADS-B
Fri 17:28:37 43.4940 -71.4080 35° Northeast 517 595 35,000  Level FlightAware ADS-B
Fri 17:29:17 43.5720 -71.3320 35° Northeast 516 594 35,000  Level FlightAware ADS-B
Fri 17:30:02 43.6600 -71.2460 35° Northeast 515 593 35,000  Level FlightAware ADS-B
Fri 17:30:42 43.7380 -71.1690 35° Northeast 513 590 35,000  Level FlightAware ADS-B
Fri 17:31:22 43.8140 -71.0940 35° Northeast 513 590 35,000  Level FlightAware ADS-B
Fri 17:32:07 43.9000 -71.0090 35° Northeast 513 590 35,000  Level FlightAware ADS-B
Fri 17:32:47 43.9770 -70.9330 35° Northeast 515 593 35,000  Level FlightAware ADS-B
Fri 17:33:27 44.0540 -70.8560 36° Northeast 515 593 35,000  Level FlightAware ADS-B
Fri 17:34:12 44.1450 -70.7660 35° Northeast 515 593 35,000  Level FlightAware ADS-B
Fri 17:34:52 44.2200 -70.6900 36° Northeast 516 594 35,000  Level FlightAware ADS-B
Fri 17:35:32 44.2990 -70.6110 36° Northeast 518 596 35,000  Level FlightAware ADS-B
Fri 17:36:17 44.3850 -70.5240 36° Northeast 518 596 35,000  Level FlightAware ADS-B
Fri 17:37:02 44.4720 -70.4360 36° Northeast 521 600 35,000  Level FlightAware ADS-B
Fri 17:37:42 44.5500 -70.3570 36° Northeast 521 600 35,000  Level FlightAware ADS-B
Fri 17:38:22 44.6320 -70.2740 36° Northeast 521 600 35,000  Level FlightAware ADS-B
Fri 17:39:07 44.7170 -70.1870 36° Northeast 523 602 35,000  Level FlightAware ADS-B
Fri 17:39:42 44.7860 -70.1160 36° Northeast 522 601 35,000  Level FlightAware ADS-B
Fri 17:40:32 44.8790 -70.0200 36° Northeast 520 598 35,000  Level FlightAware ADS-B
Fri 17:41:12 44.9620 -69.9350 36° Northeast 522 601 35,000  Level FlightAware ADS-B
Fri 17:41:52 45.0390 -69.8560 36° Northeast 521 600 35,000  Level FlightAware ADS-B
Fri 17:42:32 45.1150 -69.7760 37° Northeast 521 600 35,000  Level FlightAware ADS-B
Fri 17:43:49 45.2500 -69.6500 37° Northeast 530 610 35,000  Level Moncton Center
Fri 17:44:49 45.3667 -69.5167 39° Northeast 520 598 35,000  Level Moncton Center
Fri 17:45:39 45.4597 -69.4278 34° Northeast 515 593 35,000  Level Boston Center
Fri 17:46:39 45.5772 -69.3031 37° Northeast 515 593 35,000  Level Boston Center
Fri 17:47:38 45.6925 -69.1808 37° Northeast 515 593 35,000  Level Boston Center
Fri 17:48:38 45.8056 -69.0553 38° Northeast 515 593 35,000  Level Boston Center
Fri 17:49:38 45.9206 -68.9289 37° Northeast 510 587 35,000  Level Boston Center
Fri 17:55:27 46.5960 -68.1850 37° Northeast 512 589 35,000  Level FlightAware ADS-B
Fri 17:56:07 46.6750 -68.0970 37° Northeast 514 592 35,000  Level FlightAware ADS-B
Fri 17:56:47 46.7460 -68.0170 38° Northeast 513 590 35,000  Level FlightAware ADS-B
Fri 17:57:27 46.8210 -67.9340 37° Northeast 514 592 35,000  Level FlightAware ADS-B
Fri 17:58:17 46.9110 -67.8340 37° Northeast 514 592 35,000  Level FlightAware ADS-B
Fri 17:58:57 46.9750 -67.7630 37° Northeast 514 592 35,000  Level FlightAware ADS-B
Fri 17:59:37 47.0400 -67.6910 37° Northeast 514 592 35,000  Level FlightAware ADS-B
Fri 18:00:17 47.1040 -67.6200 37° Northeast 514 592 35,000  Level FlightAware ADS-B
Fri 18:00:57 47.1690 -67.5480 37° Northeast 514 592 35,000  Level FlightAware ADS-B
Fri 18:01:37 47.2330 -67.4770 37° Northeast 514 592 35,000  Level FlightAware ADS-B
Fri 18:02:27 47.3140 -67.3870 37° Northeast 514 592 35,000  Level FlightAware ADS-B
Fri 18:03:07 47.3790 -67.3150 37° Northeast 514 592 35,000  Level FlightAware ADS-B
Fri 18:03:47 47.4430 -67.2430 37° Northeast 514 592 35,000  Level FlightAware ADS-B
Fri 18:04:27 47.5080 -67.1710 37° Northeast 514 592 35,000  Level FlightAware ADS-B
Fri 18:05:12 47.5720 -67.0990 37° Northeast 514 592 35,000  Level FlightAware ADS-B
Fri 18:05:57 47.6530 -67.0090 37° Northeast 514 592 35,000  Level FlightAware ADS-B
Fri 18:06:37 47.7180 -66.9370 37° Northeast 514 592 35,000  Level FlightAware ADS-B
Fri 18:07:17 47.7820 -66.8640 37° Northeast 514 592 35,000  Level FlightAware ADS-B
Fri 18:07:41 47.9167 -66.5000 37° Northeast 520 598 35,000  Level Gander Center
Fri 18:08:07 47.9667 -66.4167 48° Northeast 520 598 35,000  Level Gander Center
Fri 18:08:49 48.0167 -66.3000 57° Northeast 520 598 35,000  Level Moncton Center
Fri 18:09:49 48.1333 -66.1500 41° Northeast 520 598 35,000  Level Moncton Center
Fri 18:10:49 48.2167 -66.0000 50° Northeast 520 598 35,000  Level Moncton Center
Fri 18:11:49 48.3333 -65.8333 43° Northeast 520 598 35,000  Level Moncton Center
Fri 18:12:49 48.4333 -65.6833 45° Northeast 520 598 35,000  Level Moncton Center
Fri 18:13:49 48.5333 -65.5167 48° Northeast 520 598 35,000  Level Moncton Center
Fri 18:14:49 48.6333 -65.3667 45° Northeast 520 598 35,000  Level Moncton Center
Fri 18:15:49 48.7333 -65.2167 45° Northeast 520 598 35,000  Level Moncton Center
Fri 18:16:49 48.8333 -65.0333 50° Northeast 520 598 35,000  Level Moncton Center
Fri 18:17:49 48.9333 -64.8833 45° Northeast 520 598 35,000  Level Moncton Center
Fri 18:18:49 49.0333 -64.7333 44° Northeast 520 598 35,000  Level Moncton Center
Fri 18:19:49 49.1333 -64.5500 50° Northeast 520 598 35,000  Level Moncton Center
Fri 18:20:07 49.1500 -64.5000 63° Northeast 520 598 35,000  Level Gander Center
Fri 18:21:07 49.2667 -64.3500 40° Northeast 520 598 35,000  Level Gander Center
Fri 18:21:49 49.3167 -64.2500 52° Northeast 520 598 35,000  Level Moncton Center
Fri 18:22:49 49.4167 -64.0667 50° Northeast 520 598 35,000  Level Moncton Center
Fri 18:23:49 49.5167 -63.9000 47° Northeast 520 598 35,000  Level Moncton Center
Fri 18:24:49 49.6167 -63.7500 44° Northeast 510 587 35,000  Level Moncton Center
Fri 18:25:07 49.6667 -63.6833 41° Northeast 510 587 35,000  Level Gander Center
Fri 18:25:49 49.7167 -63.6000 47° Northeast 510 587 35,000  Level Moncton Center
Fri 18:26:49 49.8167 -63.4167 50° Northeast 520 598 35,000  Level Moncton Center
Fri 18:27:49 49.9000 -63.2500 52° Northeast 510 587 35,000  Level Moncton Center
Fri 18:28:07 49.9333 -63.2000 44° Northeast 510 587 35,000  Level Gander Center
Fri 18:28:49 50.0167 -63.0667 46° Northeast 510 587 35,000  Level Moncton Center
Fri 18:29:49 50.1000 -62.9167 49° Northeast 510 587 35,000  Level Moncton Center
Fri 18:30:07 50.1333 -62.8667 44° Northeast 510 587 35,000  Level Gander Center
Fri 18:31:07 50.2333 -62.7167 44° Northeast 510 587 35,000  Level Gander Center
Fri 18:31:49 50.3000 -62.5833 52° Northeast 510 587 35,000  Level Moncton Center
Fri 18:32:07 50.3333 -62.5333 44° Northeast 510 587 35,000  Level Gander Center
Fri 18:33:07 50.4167 -62.3500 54° Northeast 520 598 35,000  Level Gander Center
Fri 18:34:07 50.5167 -62.2000 44° Northeast 510 587 35,000  Level Gander Center
Fri 18:35:07 50.6000 -62.0500 49° Northeast 520 598 35,000  Level Gander Center
Fri 18:35:49 50.6667 -61.9167 52° Northeast 500 575 35,000  Level Moncton Center
Fri 18:36:07 50.7000 -61.8667 44° Northeast 520 598 35,000  Level Gander Center
Fri 18:37:07 50.8000 -61.6833 49° Northeast 510 587 35,000  Level Gander Center
Fri 18:37:49 50.8667 -61.5667 48° Northeast 520 598 35,000  Level Moncton Center
Fri 18:38:07 50.8833 -61.5167 62° Northeast 520 598 35,000  Level Gander Center
Fri 18:39:07 50.9833 -61.3333 49° Northeast 520 598 35,000  Level Gander Center
Fri 18:40:07 51.0667 -61.1833 48° Northeast 510 587 35,000  Level Gander Center
Fri 18:41:07 51.1667 -60.9833 51° Northeast 530 610 35,000  Level Gander Center
Fri 18:41:49 51.2333 -60.8667 48° Northeast 520 598 35,000  Level Moncton Center
Fri 18:42:49 51.3333 -60.7000 46° Northeast 520 598 35,000  Level Moncton Center
Fri 18:43:49 51.4167 -60.5000 56° Northeast 510 587 35,000  Level Moncton Center
Fri 18:44:49 51.5167 -60.3333 46° Northeast 520 598 35,000  Level Moncton Center
Fri 18:45:07 51.5333 -60.2833 62° Northeast 520 598 35,000  Level Gander Center
Fri 18:46:07 51.6333 -60.1000 49° Northeast 520 598 35,000  Level Gander Center
Fri 18:47:07 51.7167 -59.9000 56° Northeast 520 598 35,000  Level Gander Center
Fri 18:47:49 51.7833 -59.7667 51° Northeast 530 610 35,000  Level Moncton Center
Fri 18:48:49 51.8667 -59.5667 56° Northeast 530 610 35,000  Level Moncton Center
Fri 18:49:07 51.9000 -59.5167 43° Northeast 530 610 35,000  Level Gander Center
Fri 18:50:07 51.9833 -59.3500 51° Northeast 520 598 35,000  Level Gander Center
Fri 18:51:07 52.0667 -59.1333 58° Northeast 530 610 35,000  Level Gander Center
Fri 18:52:07 52.1500 -58.9667 51° Northeast 520 598 35,000  Level Gander Center
Fri 18:53:07 52.2500 -58.7667 51° Northeast 520 598 35,000  Level Gander Center
Fri 18:54:07 52.3333 -58.5667 56° Northeast 520 598 35,000  Level Gander Center
Fri 18:55:07 52.4167 -58.3833 53° Northeast 520 598 35,000  Level Gander Center
Fri 18:56:07 52.5000 -58.2000 53° Northeast 520 598 35,000  Level Gander Center
Fri 18:57:07 52.6000 -57.9833 53° Northeast 520 598 35,000  Level Gander Center
Fri 18:58:07 52.6833 -57.8000 53° Northeast 520 598 35,000  Level Gander Center
Fri 18:59:07 52.7500 -57.6000 61° Northeast 530 610 35,000  Level Gander Center
Fri 18:59:49 52.8167 -57.4667 50° Northeast 520 598 35,000  Level Moncton Center
Fri 19:00:49 52.9000 -57.2667 55° Northeast 520 598 35,000  Level Moncton Center
Fri 19:01:49 52.9833 -57.0833 53° Northeast 530 610 35,000  Level Moncton Center
Fri 19:02:07 53.0167 -57.0000 56° Northeast 530 610 35,000  Level Gander Center
Fri 19:03:07 53.1000 -56.8333 50° Northeast 520 598 35,000  Level Gander Center
Fri 19:03:49 53.1500 -56.6667 63° Northeast 530 610 35,000  Level Moncton Center
Fri 19:04:07 53.1833 -56.6167 42° Northeast 530 610 35,000  Level Gander Center
Fri 19:04:49 53.2333 -56.4833 58° Northeast 520 598 35,000  Level Moncton Center
Fri 19:05:49 53.3167 -56.2667 57° Northeast 530 610 35,000  Level Moncton Center
Fri 19:06:07 53.3333 -56.2167 61° Northeast 520 598 35,000  Level Gander Center
Fri 19:06:49 53.3833 -56.0667 61° Northeast 530 610 35,000  Level Moncton Center
Fri 19:07:49 53.4833 -55.8667 50° Northeast 530 610 35,000  Level Moncton Center
Fri 19:08:07 53.5000 -55.8333 50° Northeast 530 610 35,000  Level Gander Center
Fri 19:09:07 53.6000 -55.5833 56° Northeast 520 598 35,000  Level Gander Center
Fri 19:09:49 53.6500 -55.4500 58° Northeast 530 610 35,000  Level Moncton Center
Fri 19:10:07 53.6667 -55.4167 50° Northeast 530 610 35,000  Level Gander Center
Fri 19:11:07 53.7667 -55.2000 52° Northeast 520 598 35,000  Level Gander Center
Fri 19:12:07 53.8333 -54.9833 62° Northeast 530 610 35,000  Level Gander Center
Fri 19:13:07 53.9000 -54.7500 64° Northeast 530 610 35,000  Level Gander Center
Fri 19:14:07 53.9500 -54.5167 70° East 540 621 35,000  Level Gander Center
Fri 19:15:07 54.0000 -54.3000 68° East 540 621 35,000  Level Gander Center
Fri 19:16:07 54.0500 -54.0667 70° East 540 621 35,000  Level Gander Center
Fri 19:17:07 54.1000 -53.8333 70° East 540 621 35,000  Level Gander Center
Fri 19:18:07 54.1500 -53.6000 70° East 540 621 35,000  Level Gander Center
Fri 19:19:07 54.2333 -53.3500 60° Northeast 540 621 35,000  Level Gander Center
Fri 19:20:07 54.2833 -53.1167 70° East 540 621 35,000  Level Gander Center
Fri 19:21:07 54.3333 -52.8667 71° East 540 621 35,000  Level Gander Center
Fri 19:21:41 54.3667 -52.7500 64° Northeast 540 621 35,000  Level Gander Center
Fri 19:22:07 54.3833 -52.6333 76° East 540 621 35,000  Level Gander Center
Fri 19:22:41 54.4167 -52.5000 67° East 540 621 35,000  Level Gander Center
Fri 19:23:41 54.4667 -52.2667 70° East 540 621 35,000  Level Gander Center
Fri 19:24:41 54.5167 -52.0167 71° East 540 621 35,000  Level Gander Center
Fri 19:25:07 54.5500 -51.9333 55° Northeast 540 621 35,000  Level Gander Center
Fri 19:26:07 54.6000 -51.6500 73° East 540 621 35,000  Level Gander Center
Fri 19:27:07 54.6667 -51.4333 62° Northeast 540 621 35,000  Level Gander Center
Fri 19:28:07 54.7167 -51.1833 71° East 540 621 35,000  Level Gander Center
Fri 19:28:41 54.7500 -51.0333 69° East 540 621 35,000  Level Gander Center
Fri 19:29:41 54.7833 -50.8000 76° East 540 621 35,000  Level Gander Center
Fri 19:30:07 54.8167 -50.7000 60° Northeast 540 621 35,000  Level Gander Center
Fri 19:31:07 54.8833 -50.4500 65° Northeast 550 633 35,000  Level Gander Center
Fri 19:32:07 54.8833 -50.1833 90° East 550 633 35,000  Level Gander Center
Fri 19:33:07 54.9667 -49.9333 60° Northeast 550 633 35,000 12 Level Gander Center
Fri 19:35:00 55.0351 -49.4951 75° East  Level FlightAware Approximate
Fri 19:42:00 55.2756 -47.8535 75° East  Level FlightAware Approximate
Fri 19:43:00 55.3082 -47.6174 76° East  Level FlightAware Approximate
Fri 19:44:00 55.3402 -47.3809 76° East  Level FlightAware Approximate
Fri 19:45:00 55.3714 -47.1428 78° East  Level FlightAware Approximate
Fri 19:46:00 55.3987 -46.9041 79° East  Level FlightAware Approximate
Fri 19:47:00 55.4255 -46.6651 79° East  Level FlightAware Approximate
Fri 19:48:00 55.4519 -46.4257 79° East  Level FlightAware Approximate
Fri 19:49:00 55.4779 -46.1860 79° East  Level FlightAware Approximate
Fri 19:50:00 55.5033 -45.9461 79° East  Level FlightAware Approximate
Fri 19:51:00 55.5283 -45.7058 79° East  Level FlightAware Approximate
Fri 19:52:00 55.5528 -45.4652 80° East  Level FlightAware Approximate
Fri 19:53:00 55.5769 -45.2243 80° East  Level FlightAware Approximate
Fri 19:54:00 55.6005 -44.9831 80° East  Level FlightAware Approximate
Fri 19:55:00 55.6236 -44.7416 80° East  Level FlightAware Approximate
Fri 19:56:00 55.6462 -44.4999 80° East  Level FlightAware Approximate
Fri 19:57:00 55.6683 -44.2579 81° East  Level FlightAware Approximate
Fri 19:58:00 55.6900 -44.0156 81° East  Level FlightAware Approximate
Fri 19:59:00 55.7112 -43.7730 81° East  Level FlightAware Approximate
Fri 20:00:00 55.7319 -43.5302 81° East  Level FlightAware Approximate
Fri 20:01:00 55.7521 -43.2871 81° East  Level FlightAware Approximate
Fri 20:02:00 55.7719 -43.0438 82° East  Level FlightAware Approximate
Fri 20:03:00 55.7920 -42.8004 81° East  Level FlightAware Approximate
Fri 20:04:00 55.8126 -42.5570 81° East  Level FlightAware Approximate
Fri 20:05:00 55.8329 -42.3134 81° East  Level FlightAware Approximate
Fri 20:06:00 55.8526 -42.0696 82° East  Level FlightAware Approximate
Fri 20:07:00 55.8718 -41.8255 82° East  Level FlightAware Approximate
Fri 20:08:00 55.8906 -41.5812 82° East  Level FlightAware Approximate
Fri 20:09:00 55.9089 -41.3366 82° East  Level FlightAware Approximate
Fri 20:10:00 55.9267 -41.0919 83° East  Level FlightAware Approximate
Fri 20:11:00 55.9440 -40.8468 83° East  Level FlightAware Approximate
Fri 20:12:00 55.9608 -40.6016 83° East  Level FlightAware Approximate
Fri 20:13:00 55.9772 -40.3562 83° East  Level FlightAware Approximate
Fri 20:14:00 55.9930 -40.1105 83° East  Level FlightAware Approximate
Fri 20:15:00 56.0189 -39.8681 76° East  Level FlightAware Approximate
Fri 20:16:00 56.0528 -39.6281 76° East  Level FlightAware Approximate
Fri 20:17:00 56.0863 -39.3877 76° East  Level FlightAware Approximate
Fri 20:18:00 56.1193 -39.1468 76° East  Level FlightAware Approximate
Fri 20:19:00 56.1519 -38.9055 76° East  Level FlightAware Approximate
Fri 20:20:00 56.1839 -38.6639 76° East  Level FlightAware Approximate
Fri 20:21:00 56.2155 -38.4218 77° East  Level FlightAware Approximate
Fri 20:22:00 56.2467 -38.1793 77° East  Level FlightAware Approximate
Fri 20:23:00 56.2773 -37.9365 77° East  Level FlightAware Approximate
Fri 20:24:00 56.3075 -37.6932 77° East  Level FlightAware Approximate
Fri 20:25:00 56.3372 -37.4496 77° East  Level FlightAware Approximate
Fri 20:26:00 56.3664 -37.2056 78° East  Level FlightAware Approximate
Fri 20:27:00 56.3952 -36.9612 78° East  Level FlightAware Approximate
Fri 20:28:00 56.4234 -36.7165 78° East  Level FlightAware Approximate
Fri 20:29:00 56.4512 -36.4714 78° East  Level FlightAware Approximate
Fri 20:30:00 56.4785 -36.2259 79° East  Level FlightAware Approximate
Fri 20:31:00 56.5053 -35.9801 79° East  Level FlightAware Approximate
Fri 20:32:00 56.5316 -35.7340 79° East  Level FlightAware Approximate
Fri 20:33:00 56.5575 -35.4875 79° East  Level FlightAware Approximate
Fri 20:34:00 56.5828 -35.2406 79° East  Level FlightAware Approximate
Fri 20:35:00 56.6077 -34.9935 80° East  Level FlightAware Approximate
Fri 20:36:00 56.6321 -34.7460 80° East  Level FlightAware Approximate
Fri 20:37:00 56.6559 -34.4982 80° East  Level FlightAware Approximate
Fri 20:38:00 56.6793 -34.2501 80° East  Level FlightAware Approximate
Fri 20:39:00 56.7022 -34.0017 80° East  Level FlightAware Approximate
Fri 20:40:00 56.7246 -33.7530 81° East  Level FlightAware Approximate
Fri 20:41:00 56.7465 -33.5040 81° East  Level FlightAware Approximate
Fri 20:42:00 56.7679 -33.2547 81° East  Level FlightAware Approximate
Fri 20:43:00 56.7888 -33.0051 81° East  Level FlightAware Approximate
Fri 20:44:00 56.8092 -32.7553 81° East  Level FlightAware Approximate
Fri 20:45:00 56.8291 -32.5052 82° East  Level FlightAware Approximate
Fri 20:46:00 56.8485 -32.2548 82° East  Level FlightAware Approximate
Fri 20:47:00 56.8675 -32.0042 82° East  Level FlightAware Approximate
Fri 20:48:00 56.8858 -31.7533 82° East  Level FlightAware Approximate
Fri 20:49:00 56.9038 -31.5022 82° East  Level FlightAware Approximate
Fri 20:50:00 56.9212 -31.2508 83° East  Level FlightAware Approximate
Fri 20:51:00 56.9380 -30.9992 83° East  Level FlightAware Approximate
Fri 20:52:00 56.9544 -30.7474 83° East  Level FlightAware Approximate
Fri 20:53:00 56.9703 -30.4953 83° East  Level FlightAware Approximate
Fri 20:54:00 56.9857 -30.2431 84° East  Level FlightAware Approximate
Fri 20:55:00 57.0004 -29.9906 86° East  Level FlightAware Approximate
Fri 20:56:00 57.0097 -29.7372 86° East  Level FlightAware Approximate
Fri 20:57:00 57.0185 -29.4836 86° East  Level FlightAware Approximate
Fri 20:58:00 57.0268 -29.2299 86° East  Level FlightAware Approximate
Fri 20:59:00 57.0346 -28.9762 87° East  Level FlightAware Approximate
Fri 21:00:00 57.0419 -28.7223 87° East  Level FlightAware Approximate
Fri 21:01:00 57.0486 -28.4683 87° East  Level FlightAware Approximate
Fri 21:02:00 57.0549 -28.2142 87° East  Level FlightAware Approximate
Fri 21:03:00 57.0606 -27.9601 88° East  Level FlightAware Approximate
Fri 21:04:00 57.0658 -27.7059 88° East  Level FlightAware Approximate
Fri 21:05:00 57.0705 -27.4516 88° East  Level FlightAware Approximate
Fri 21:06:00 57.0747 -27.1972 88° East  Level FlightAware Approximate
Fri 21:07:00 57.0784 -26.9428 88° East  Level FlightAware Approximate
Fri 21:08:00 57.0816 -26.6884 89° East  Level FlightAware Approximate
Fri 21:09:00 57.0842 -26.4339 89° East  Level FlightAware Approximate
Fri 21:10:00 57.0863 -26.1793 89° East  Level FlightAware Approximate
Fri 21:11:00 57.0880 -25.9248 89° East  Level FlightAware Approximate
Fri 21:12:00 57.0891 -25.6702 89° East  Level FlightAware Approximate
Fri 21:13:00 57.0896 -25.4156 90° East  Level FlightAware Approximate
Fri 21:14:00 57.0897 -25.1611 90° East  Level FlightAware Approximate
Fri 21:15:00 57.0892 -24.9065 90° East  Level FlightAware Approximate
Fri 21:16:00 57.0883 -24.6519 90° East  Level FlightAware Approximate
Fri 21:17:00 57.0868 -24.3973 91° East  Level FlightAware Approximate
Fri 21:18:00 57.0848 -24.1428 91° East  Level FlightAware Approximate
Fri 21:19:00 57.0823 -23.8883 91° East  Level FlightAware Approximate
Fri 21:20:00 57.0793 -23.6339 91° East  Level FlightAware Approximate
Fri 21:21:00 57.0757 -23.3794 91° East  Level FlightAware Approximate
Fri 21:22:00 57.0716 -23.1251 92° East  Level FlightAware Approximate
Fri 21:23:00 57.0671 -22.8708 92° East  Level FlightAware Approximate
Fri 21:24:00 57.0636 -22.6164 91° East  Level FlightAware Approximate
Fri 21:25:00 57.0599 -22.3621 91° East  Level FlightAware Approximate
Fri 21:26:00 57.0556 -22.1079 92° East  Level FlightAware Approximate
Fri 21:27:00 57.0507 -21.8537 92° East  Level FlightAware Approximate
Fri 21:28:00 57.0454 -21.5996 92° East  Level FlightAware Approximate
Fri 21:29:00 57.0396 -21.3455 92° East  Level FlightAware Approximate
Fri 21:30:00 57.0332 -21.0916 93° East  Level FlightAware Approximate
Fri 21:31:00 57.0263 -20.8377 93° East  Level FlightAware Approximate
Fri 21:32:00 57.0190 -20.5840 93° East  Level FlightAware Approximate
Fri 21:33:00 57.0111 -20.3303 93° East  Level FlightAware Approximate
Fri 21:34:00 57.0027 -20.0768 93° East  Level FlightAware Approximate
Fri 21:35:00 56.9816 -19.8262 101° East  Level FlightAware Approximate
Fri 21:36:00 56.9548 -19.5772 101° East  Level FlightAware Approximate
Fri 21:37:00 56.9276 -19.3286 101° East  Level FlightAware Approximate
Fri 21:38:00 56.8998 -19.0804 101° East  Level FlightAware Approximate
Fri 21:39:00 56.8716 -18.8326 102° East  Level FlightAware Approximate
Fri 21:40:00 56.8428 -18.5851 102° East  Level FlightAware Approximate
Fri 21:41:00 56.8136 -18.3380 102° East  Level FlightAware Approximate
Fri 21:42:00 56.7839 -18.0913 102° East  Level FlightAware Approximate
Fri 21:43:00 56.7537 -17.8450 103° East  Level FlightAware Approximate
Fri 21:44:00 56.7230 -17.5990 103° East  Level FlightAware Approximate
Fri 21:45:00 56.6918 -17.3535 103° East  Level FlightAware Approximate
Fri 21:46:00 56.6601 -17.1084 103° East  Level FlightAware Approximate
Fri 21:47:00 56.6280 -16.8637 103° East  Level FlightAware Approximate
Fri 21:48:00 56.5954 -16.6195 104° East  Level FlightAware Approximate
Fri 21:49:00 56.5623 -16.3756 104° East  Level FlightAware Approximate
Fri 21:50:00 56.5287 -16.1322 104° East  Level FlightAware Approximate
Fri 21:51:00 56.4947 -15.8892 104° East  Level FlightAware Approximate
Fri 21:52:00 56.4602 -15.6467 104° East  Level FlightAware Approximate
Fri 21:53:00 56.4252 -15.4046 105° East  Level FlightAware Approximate
Fri 21:54:00 56.3897 -15.1629 105° East  Level FlightAware Approximate
Fri 21:55:00 56.3538 -14.9218 105° East  Level FlightAware Approximate
Fri 21:56:00 56.3174 -14.6810 105° East  Level FlightAware Approximate
Fri 21:57:00 56.2805 -14.4407 105° East  Level FlightAware Approximate
Fri 21:58:00 56.2432 -14.2009 106° East  Level FlightAware Approximate
Fri 21:59:00 56.2054 -13.9616 106° East  Level FlightAware Approximate
Fri 22:00:00 56.1672 -13.7227 106° East  Level FlightAware Approximate
Fri 22:01:00 56.1284 -13.4843 106° East  Level FlightAware Approximate
Fri 22:02:00 56.0893 -13.2464 106° East  Level FlightAware Approximate
Fri 22:03:00 56.0497 -13.0090 107° East  Level FlightAware Approximate
Fri 22:04:00 56.0096 -12.7721 107° East  Level FlightAware Approximate
Fri 22:05:00 55.9691 -12.5356 107° East  Level FlightAware Approximate
Fri 22:06:00 55.9281 -12.2997 107° East  Level FlightAware Approximate
Fri 22:07:00 55.8866 -12.0642 107° East  Level FlightAware Approximate
Fri 22:08:00 55.8448 -11.8293 108° East  Level FlightAware Approximate
Fri 22:09:00 55.8024 -11.5949 108° East  Level FlightAware Approximate
Fri 22:10:00 55.7597 -11.3610 108° East  Level FlightAware Approximate
Fri 22:11:00 55.7164 -11.1276 108° East  Level FlightAware Approximate
Fri 22:12:00 55.6728 -10.8947 108° East  Level FlightAware Approximate
Fri 22:13:00 55.6287 -10.6623 108° East  Level FlightAware Approximate
Fri 22:14:00 55.5841 -10.4305 109° East  Level FlightAware Approximate
Fri 22:15:00 55.5392 -10.1992 109° East  Level FlightAware Approximate
Fri 22:15:22 55.3860 -9.5320 108° East 477 549 37,000  Level FlightAware ADS-B
Fri 22:16:00 55.4940 -9.9683 108° East  Level FlightAware Approximate
Fri 22:16:07 55.3540 -9.3570 108° East 476 548 37,000  Level FlightAware ADS-B
Fri 22:16:47 55.3270 -9.2130 108° East 476 548 37,000  Level FlightAware ADS-B
Fri 22:17:27 55.2980 -9.0640 109° East 473 544 37,000 -1,475 Level FlightAware ADS-B
Fri 22:17:48 55.2662 -8.9661 109° East 442 509 35,500 -2,308 Descending FlightAware UK
Fri 22:18:06 55.2535 -8.9004 109° East 442 509 35,500 3,750 Level FlightAware UK
Fri 22:18:12 55.2680 -8.9060 109° East 473 544 37,000  Climbing FlightAware ADS-B
Fri 22:18:30 55.2364 -8.8131 109° East 440 506 35,500 -2,500 Descending FlightAware UK
Fri 22:18:48 55.2234 -8.7476 109° East 438 504 35,500 4,091 Level FlightAware UK
Fri 22:18:52 55.2390 -8.7570 109° East 474 545 37,000  Climbing FlightAware ADS-B
Fri 22:19:12 55.2062 -8.6604 109° East 440 506 35,500 -2,368 Descending FlightAware UK
Fri 22:19:30 55.1931 -8.5942 109° East 440 506 35,500 3,600 Level FlightAware UK
Fri 22:19:37 55.2070 -8.5960 109° East 474 545 37,000  Climbing FlightAware ADS-B
Fri 22:19:54 55.1757 -8.5069 109° East 444 511 35,500 -2,571 Descending FlightAware UK
Fri 22:20:12 55.1626 -8.4417 109° East 444 511 35,500 3,913 Level FlightAware UK
Fri 22:20:17 55.1780 -8.4480 109° East 473 544 37,000  Climbing FlightAware ADS-B
Fri 22:20:36 55.1450 -8.3549 109° East 442 509 35,500 -2,432 Descending FlightAware UK
Fri 22:20:54 55.1319 -8.2899 109° East 444 511 35,500 3,462 Level FlightAware UK
Fri 22:21:02 55.1460 -8.2880 109° East 473 544 37,000  Climbing FlightAware ADS-B
Fri 22:21:18 55.1143 -8.2030 109° East 442 509 35,500 -2,647 Descending FlightAware UK
Fri 22:21:36 55.1013 -8.1378 109° East 444 511 35,500  Level FlightAware UK
Fri 22:21:54 55.0881 -8.0730 110° East 444 511 35,500  Level FlightAware UK
Fri 22:22:12 55.0747 -8.0082 110° East 444 511 35,500  Level FlightAware UK
Fri 22:22:30 55.0614 -7.9436 110° East 442 509 35,500  Level FlightAware UK
Fri 22:22:48 55.0480 -7.8790 110° East 444 511 35,500  Level FlightAware UK
Fri 22:23:06 55.0347 -7.8144 110° East 444 511 35,500  Level FlightAware UK
Fri 22:23:24 55.0214 -7.7499 110° East 444 511 35,500  Level FlightAware UK
Fri 22:23:42 55.0080 -7.6854 110° East 444 511 35,500  Level FlightAware UK
Fri 22:24:00 54.9947 -7.6209 110° East 442 509 35,500  Level FlightAware UK
Fri 22:24:18 54.9814 -7.5564 110° East 442 509 35,500  Level FlightAware UK
Fri 22:24:36 54.9676 -7.4915 110° East 444 511 35,500  Level FlightAware UK
Fri 22:24:54 54.9540 -7.4273 110° East 444 511 35,500  Level FlightAware UK
Fri 22:25:12 54.9404 -7.3632 110° East 442 509 35,500  Level FlightAware UK
Fri 22:25:30 54.9269 -7.2991 110° East 442 509 35,500  Level FlightAware UK
Fri 22:25:48 54.9133 -7.2351 110° East 440 506 35,500  Level FlightAware UK
Fri 22:26:06 54.8996 -7.1711 110° East 440 506 35,500 2,647 Level FlightAware UK
Fri 22:26:22 54.9060 -7.1270 110° East 472 543 37,000  Climbing FlightAware ADS-B
Fri 22:26:24 54.8860 -7.1071 110° East 436 502 35,500 -4,500 Descending FlightAware UK
Fri 22:26:42 54.8725 -7.0431 110° East 438 504 35,500  Level FlightAware UK
Fri 22:27:00 54.8588 -6.9793 110° East 436 502 35,500 4,500 Level FlightAware UK
Fri 22:27:02 54.8760 -6.9850 110° East 471 542 37,000  Climbing FlightAware ADS-B
Fri 22:27:18 54.8450 -6.9157 110° East 436 502 35,500 -2,647 Descending FlightAware UK
Fri 22:27:36 54.8312 -6.8520 111° Southeast 438 504 35,500 3,103 Level FlightAware UK
Fri 22:27:47 54.8430 -6.8320 111° Southeast 470 541 37,000  Climbing FlightAware ADS-B
Fri 22:28:12 54.8035 -6.7244 111° Southeast 438 504 35,500  Descending FlightAware UK
Fri 22:28:27 54.8110 -6.6870 111° Southeast 471 542 37,000  Climbing FlightAware ADS-B
Fri 22:28:30 54.7897 -6.6605 111° Southeast 438 504 35,500 -4,286 Descending FlightAware UK
Fri 22:28:48 54.7757 -6.5965 111° Southeast 440 506 35,500  Level FlightAware UK
Fri 22:29:06 54.7618 -6.5324 111° Southeast 442 509 35,500 3,750 Level FlightAware UK
Fri 22:29:12 54.7770 -6.5290 111° Southeast 473 544 37,000  Climbing FlightAware ADS-B
Fri 22:29:30 54.7425 -6.4471 111° Southeast 442 509 35,500 -2,500 Descending FlightAware UK
Fri 22:29:48 54.7283 -6.3828 111° Southeast 442 509 35,500 4,091 Level FlightAware UK
Fri 22:29:52 54.7450 -6.3860 111° Southeast 473 544 37,000  Climbing FlightAware ADS-B
Fri 22:30:12 54.7094 -6.2974 111° Southeast 444 511 35,500 -2,368 Descending FlightAware UK
Fri 22:30:30 54.6951 -6.2338 111° Southeast 444 511 35,500 4,500 Level FlightAware UK
Fri 22:30:32 54.7140 -6.2470 111° Southeast 474 545 37,000  Climbing FlightAware ADS-B
Fri 22:30:48 54.6811 -6.1697 111° Southeast 448 516 35,500 -2,647 Descending FlightAware UK
Fri 22:31:06 54.6668 -6.1048 111° Southeast 446 513 35,500 3,103 Level FlightAware UK
Fri 22:31:17 54.6780 -6.0860 111° Southeast 475 547 37,000  Climbing FlightAware ADS-B
Fri 22:31:36 54.6429 -5.9982 111° Southeast 446 513 35,500 -2,432 Descending FlightAware UK
Fri 22:31:54 54.6285 -5.9344 111° Southeast 446 513 35,500 4,286 Level FlightAware UK
Fri 22:31:57 54.6460 -5.9460 111° Southeast 474 545 37,000  Climbing FlightAware ADS-B
Fri 22:32:12 54.6139 -5.8708 111° Southeast 444 511 35,500 -2,727 Descending FlightAware UK
Fri 22:32:30 54.5994 -5.8073 111° Southeast 444 511 35,500 3,000 Level FlightAware UK
Fri 22:32:42 54.6100 -5.7880 111° Southeast 476 548 37,000  Climbing FlightAware ADS-B
Fri 22:33:00 54.5754 -5.7017 111° Southeast 446 513 35,500 -2,500 Descending FlightAware UK
Fri 22:33:18 54.5608 -5.6385 112° Southeast 446 513 35,500 4,091 Level FlightAware UK
Fri 22:33:22 54.5780 -5.6490 112° Southeast 474 545 37,000  Climbing FlightAware ADS-B
Fri 22:33:42 54.5416 -5.5542 112° Southeast 446 513 35,500 -2,368 Descending FlightAware UK
Fri 22:34:00 54.5271 -5.4913 112° Southeast 444 511 35,500 4,500 Level FlightAware UK
Fri 22:34:02 54.5460 -5.5080 112° Southeast 473 544 37,000  Climbing FlightAware ADS-B
Fri 22:34:18 54.5125 -5.4284 112° Southeast 444 511 35,500 -2,647 Descending FlightAware UK
Fri 22:34:36 54.4977 -5.3648 112° Southeast 444 511 35,500 3,103 Level FlightAware UK
Fri 22:34:47 54.5080 -5.3500 112° Southeast 473 544 37,000  Climbing FlightAware ADS-B
Fri 22:35:06 54.4734 -5.2608 112° Southeast 440 506 35,500 -2,432 Descending FlightAware UK
Fri 22:35:24 54.4588 -5.1981 112° Southeast 440 506 35,500 4,286 Level FlightAware UK
Fri 22:35:27 54.4760 -5.2110 112° Southeast 473 544 37,000  Climbing FlightAware ADS-B
Fri 22:35:42 54.4441 -5.1355 112° Southeast 442 509 35,500 -2,727 Descending FlightAware UK
Fri 22:36:00 54.4293 -5.0729 112° Southeast 444 511 35,500 3,600 Level FlightAware UK
Fri 22:36:07 54.4430 -5.0720 112° Southeast 472 543 37,000  Climbing FlightAware ADS-B
Fri 22:36:24 54.4095 -4.9890 112° Southeast 444 511 35,500 -2,571 Descending FlightAware UK
Fri 22:36:42 54.3947 -4.9266 112° Southeast 444 511 35,500 3,913 Level FlightAware UK
Fri 22:36:47 54.4110 -4.9380 112° Southeast 472 543 37,000  Climbing FlightAware ADS-B
Fri 22:37:07 54.3749 -4.8430 112° Southeast 442 509 35,500 -2,368 Descending FlightAware UK
Fri 22:37:25 54.3601 -4.7809 112° Southeast 440 506 35,500 3,600 Level FlightAware UK
Fri 22:37:32 54.3730 -4.7790 112° Southeast 472 543 37,000  Climbing FlightAware ADS-B
Fri 22:37:49 54.3402 -4.6981 112° Southeast 442 509 35,500 -2,571 Descending FlightAware UK
Fri 22:38:07 54.3253 -4.6361 112° Southeast 442 509 35,500 3,214 Level FlightAware UK
Fri 22:38:17 54.3340 -4.6180 112° Southeast 471 542 37,000  Climbing FlightAware ADS-B
Fri 22:38:37 54.3004 -4.5329 112° Southeast 440 506 35,500 -2,368 Descending FlightAware UK
Fri 22:38:55 54.2855 -4.4712 112° Southeast 442 509 35,500 4,500 Level FlightAware UK
Fri 22:38:57 54.3000 -4.4810 112° Southeast 470 541 37,000  Climbing FlightAware ADS-B
Fri 22:39:13 54.2725 -4.4075 112° Southeast 440 506 35,500 -2,250 Descending FlightAware UK
Fri 22:39:37 54.2562 -4.3229 108° East 440 506 35,500 3,103 Level FlightAware UK
Fri 22:39:42 54.2690 -4.3260 108° East 470 541 37,000  Climbing FlightAware ADS-B
Fri 22:40:01 54.2400 -4.2376 108° East 442 509 35,500 -2,432 Descending FlightAware UK
Fri 22:40:19 54.2275 -4.1736 108° East 442 509 35,500 4,286 Level FlightAware UK
Fri 22:40:22 54.2420 -4.1840 108° East 470 541 37,000  Climbing FlightAware ADS-B
Fri 22:40:37 54.2151 -4.1111 108° East 442 509 35,500 -2,727 Descending FlightAware UK
Fri 22:40:55 54.2024 -4.0482 109° East 442 509 35,500 3,600 Level FlightAware UK
Fri 22:41:02 54.2130 -4.0440 109° East 469 540 37,000  Climbing FlightAware ADS-B
Fri 22:41:19 54.1855 -3.9659 109° East 442 509 35,500 -2,571 Descending FlightAware UK
Fri 22:41:37 54.1724 -3.9025 109° East 442 509 35,500 3,214 Level FlightAware UK
Fri 22:41:47 54.1800 -3.8850 109° East 468 539 37,000  Climbing FlightAware ADS-B
Fri 22:42:07 54.1509 -3.7981 109° East 440 506 35,500  Descending FlightAware UK
Fri 22:42:27 54.1510 -3.7460 109° East 468 539 37,000  Climbing FlightAware ADS-B
Fri 22:42:43 54.1248 -3.6732 109° East 442 509 35,500 -2,647 Descending FlightAware UK
Fri 22:43:01 54.1113 -3.6088 110° East 440 506 35,500 3,750 Level FlightAware UK
Fri 22:43:07 54.1220 -3.6090 110° East 467 537 37,000  Climbing FlightAware ADS-B
Fri 22:43:25 54.0940 -3.5256 110° East 440 506 35,500 -2,500 Descending FlightAware UK
Fri 22:43:43 54.0810 -3.4640 110° East 440 506 35,500 3,333 Level FlightAware UK
Fri 22:43:52 54.0900 -3.4590 110° East 468 539 37,000  Climbing FlightAware ADS-B
Fri 22:44:07 54.0636 -3.3802 110° East 440 506 35,500 -2,647 Descending FlightAware UK
Fri 22:44:26 54.0506 -3.3165 109° East 440 506 35,500 3,600 Level FlightAware UK
Fri 22:44:32 54.0610 -3.3220 109° East 468 539 37,000  Climbing FlightAware ADS-B
Fri 22:44:50 54.0336 -3.2333 109° East 438 504 35,500 -2,571 Descending FlightAware UK
Fri 22:45:07 54.0209 -3.1731 110° East 438 504 35,500 3,333 Level FlightAware UK
Fri 22:45:17 54.0280 -3.1650 110° East 468 539 37,000  Climbing FlightAware ADS-B
Fri 22:45:32 54.0032 -3.0880 110° East 438 504 35,500 -2,813 Descending FlightAware UK
Fri 22:45:49 53.9905 -3.0271 110° East 438 504 35,500 3,600 Level FlightAware UK
Fri 22:45:57 54.0000 -3.0320 110° East 469 540 37,000  Climbing FlightAware ADS-B
Fri 22:46:14 53.9728 -2.9436 110° East 438 504 35,500 -2,647 Descending FlightAware UK
Fri 22:46:31 53.9598 -2.8821 110° East 440 506 35,500 3,913 Level FlightAware UK
Fri 22:46:37 53.9680 -2.8840 110° East 468 539 37,000  Climbing FlightAware ADS-B
Fri 22:46:56 53.9419 -2.7978 110° East 440 506 35,500 -2,432 Descending FlightAware UK
Fri 22:47:14 53.9288 -2.7365 110° East 440 506 35,500 3,462 Level FlightAware UK
Fri 22:47:22 53.9350 -2.7300 110° East 468 539 37,000  Climbing FlightAware ADS-B
Fri 22:47:38 53.9111 -2.6537 110° East 442 509 35,500 -2,647 Descending FlightAware UK
Fri 22:47:56 53.8979 -2.5917 110° East 440 506 35,500 3,750 Level FlightAware UK
Fri 22:48:02 53.9050 -2.5930 110° East 467 537 37,000 4,091 Climbing FlightAware ADS-B
Fri 22:48:18 53.8916 -2.5309 110° East 468 539 37,000 -2,500 Level FlightAware ADS-B
Fri 22:48:38 53.8669 -2.4473 110° East 442 509 35,500  Descending FlightAware UK
Fri 22:48:49 53.8685 -2.4260 110° East 468 539 37,000  Climbing FlightAware ADS-B
Fri 22:49:08 53.8445 -2.3445 110° East 442 509 35,500  Descending FlightAware UK
Fri 22:49:20 53.8450 -2.3192 110° East 468 539 37,000  Climbing FlightAware ADS-B
Fri 22:49:38 53.8221 -2.2418 110° East 442 509 35,500  Descending FlightAware UK
Fri 22:49:50 53.8220 -2.2159 110° East 468 539 37,000  Climbing FlightAware ADS-B
Fri 22:50:07 53.7997 -2.1400 110° East 442 509 35,500  Descending FlightAware UK
Fri 22:50:20 53.7992 -2.1128 110° East 467 537 37,000  Climbing FlightAware ADS-B
Fri 22:50:38 53.7769 -2.0355 110° East 442 509 35,500  Descending FlightAware UK
Fri 22:50:51 53.7755 -2.0074 110° East 466 536 37,000  Climbing FlightAware ADS-B
Fri 22:51:09 53.7538 -1.9314 110° East 442 509 35,500  Descending FlightAware UK
Fri 22:51:22 53.7525 -1.9049 110° East 466 536 37,000  Climbing FlightAware ADS-B
Fri 22:51:38 53.7316 -1.8317 110° East 442 509 35,500  Descending FlightAware UK
Fri 22:51:52 53.7291 -1.8014 110° East 465 535 37,000  Climbing FlightAware ADS-B
Fri 22:52:08 53.7088 -1.7295 110° East 442 509 35,500  Descending FlightAware UK
Fri 22:52:24 53.7051 -1.6954 110° East 464 534 37,000  Climbing FlightAware ADS-B
Fri 22:52:44 53.6814 -1.6073 110° East 444 511 35,500  Descending FlightAware UK
Fri 22:52:54 53.6818 -1.5930 110° East 463 533 37,000  Climbing FlightAware ADS-B
Fri 22:53:14 53.6586 -1.5065 110° East 442 509 35,500  Descending FlightAware UK
Fri 22:53:24 53.6584 -1.4911 110° East 462 532 37,000  Climbing FlightAware ADS-B
Fri 22:53:44 53.6360 -1.4067 110° East 444 511 35,500  Descending FlightAware UK
Fri 22:53:54 53.6354 -1.3908 110° East 461 531 37,000  Climbing FlightAware ADS-B
Fri 22:54:14 53.6132 -1.3066 110° East 442 509 35,500  Descending FlightAware UK
Fri 22:54:25 53.6119 -1.2895 110° East 460 529 37,000  Climbing FlightAware ADS-B
Fri 22:54:44 53.5902 -1.2062 110° East 442 509 35,500  Descending FlightAware UK
Fri 22:54:55 53.5884 -1.1879 110° East 459 528 37,000  Climbing FlightAware ADS-B
Fri 22:55:21 53.5625 -1.0862 110° East 440 506 35,500  Descending FlightAware UK
Fri 22:55:26 53.5647 -1.0867 110° East 458 527 37,000  Climbing FlightAware ADS-B
Fri 22:55:51 53.5396 -0.9872 110° East 442 509 35,500  Descending FlightAware UK
Fri 22:55:59 53.5396 -0.9792 110° East 457 526 37,000  Climbing FlightAware ADS-B
Fri 22:56:14 53.5217 -0.9095 110° East 442 509 35,500  Descending FlightAware UK
Fri 22:56:31 53.5147 -0.8734 110° East 456 525 37,000  Climbing FlightAware ADS-B
Fri 22:56:56 53.4893 -0.7712 110° East 442 509 35,500  Descending FlightAware UK
Fri 22:57:01 53.4914 -0.7744 110° East 454 522 37,000  Climbing FlightAware ADS-B
Fri 22:57:21 53.4707 -0.6921 110° East 442 509 35,500  Descending FlightAware UK
Fri 22:57:31 53.4679 -0.6761 110° East 453 521 37,000  Climbing FlightAware ADS-B
Fri 22:57:51 53.4477 -0.5944 110° East 442 509 35,500  Descending FlightAware UK
Fri 22:58:05 53.4420 -0.5668 110° East 451 519 37,000  Climbing FlightAware ADS-B
Fri 22:58:21 53.4244 -0.4967 110° East 442 509 35,500  Descending FlightAware UK
Fri 22:58:35 53.4185 -0.4687 110° East 450 518 37,000  Climbing FlightAware ADS-B
Fri 22:58:57 53.3969 -0.3806 110° East 444 511 35,500  Descending FlightAware UK
Fri 22:59:06 53.3949 -0.3706 110° East 449 517 37,000  Climbing FlightAware ADS-B
Fri 22:59:21 53.3781 -0.3017 110° East 442 509 35,500  Descending FlightAware UK
Fri 22:59:36 53.3714 -0.2731 110° East 448 516 37,000  Climbing FlightAware ADS-B
Fri 22:59:51 53.3556 -0.2073 110° East 442 509 35,500  Descending FlightAware UK
Fri 23:00:07 53.3479 -0.1759 110° East 447 514 37,000  Climbing FlightAware ADS-B
Fri 23:00:27 53.3277 -0.0919 110° East 440 506 35,500  Descending FlightAware UK
Fri 23:00:37 53.3244 -0.0797 110° East 445 512 37,000  Climbing FlightAware ADS-B
Fri 23:00:57 53.3045 0.0032 110° East 440 506 35,500  Descending FlightAware UK
Fri 23:01:07 53.3009 0.0166 110° East 444 511 37,000  Climbing FlightAware ADS-B
Fri 23:01:27 53.2817 0.0975 110° East 440 506 35,500  Descending FlightAware UK
Fri 23:01:37 53.2775 0.1120 110° East 442 509 37,000  Climbing FlightAware ADS-B
Fri 23:01:57 53.2586 0.1919 110° East 438 504 35,500  Descending FlightAware UK
Fri 23:02:07 53.2540 0.2072 110° East 441 507 37,000  Climbing FlightAware ADS-B
Fri 23:02:27 53.2355 0.2853 110° East 438 504 35,500  Descending FlightAware UK
Fri 23:02:38 53.2305 0.3026 110° East 442 509 37,000  Climbing FlightAware ADS-B
Fri 23:02:57 53.2121 0.3799 110° East 440 506 35,500  Descending FlightAware UK
Fri 23:03:08 53.2071 0.3965 110° East 440 506 37,000  Climbing FlightAware ADS-B
Fri 23:03:27 53.1888 0.4742 110° East 440 506 35,500  Descending FlightAware UK
Fri 23:03:38 53.1836 0.4914 110° East 439 505 37,000  Climbing FlightAware ADS-B
Fri 23:03:57 53.1654 0.5688 110° East 438 504 35,500  Descending FlightAware UK
Fri 23:04:08 53.1601 0.5853 110° East 439 505 37,000  Climbing FlightAware ADS-B
Fri 23:04:27 53.1424 0.6614 110° East 436 502 35,500  Descending FlightAware UK
Fri 23:04:39 53.1364 0.6803 110° East 438 504 37,000  Climbing FlightAware ADS-B
Fri 23:04:57 53.1191 0.7541 110° East 438 504 35,500  Descending FlightAware UK
Fri 23:05:09 53.1129 0.7731 110° East 437 503 37,000  Climbing FlightAware ADS-B
Fri 23:05:27 53.0957 0.8466 110° East 438 504 35,500  Descending FlightAware UK
Fri 23:05:39 53.0894 0.8665 110° East 437 503 37,000  Climbing FlightAware ADS-B
Fri 23:05:57 53.0726 0.9378 110° East 438 504 35,500  Descending FlightAware UK
Fri 23:06:09 53.0658 0.9595 110° East 436 502 37,000  Climbing FlightAware ADS-B
Fri 23:06:27 53.0488 1.0320 110° East 440 506 35,500  Descending FlightAware UK
Fri 23:06:40 53.0420 1.0531 110° East 436 502 37,000  Climbing FlightAware ADS-B
Fri 23:06:57 53.0254 1.1242 110° East 440 506 35,500  Descending FlightAware UK
Fri 23:07:10 53.0181 1.1471 110° East 436 502 37,000  Climbing FlightAware ADS-B
Fri 23:07:27 53.0015 1.2156 110° East 440 506 35,500  Descending FlightAware UK
Fri 23:07:41 52.9943 1.2402 110° East 435 501 37,000  Climbing FlightAware ADS-B
Fri 23:07:57 52.9782 1.3064 110° East 440 506 35,500  Descending FlightAware UK
Fri 23:08:11 52.9706 1.3326 110° East 434 499 37,000  Climbing FlightAware ADS-B
Fri 23:08:28 52.9546 1.3995 110° East 438 504 35,500  Descending FlightAware UK
Fri 23:08:41 52.9469 1.4239 110° East 434 499 37,000  Climbing FlightAware ADS-B
Fri 23:08:58 52.9311 1.4905 110° East 436 502 35,500  Descending FlightAware UK
Fri 23:09:11 52.9230 1.5164 110° East 434 499 37,000  Climbing FlightAware ADS-B
Fri 23:09:28 52.9074 1.5822 110° East 434 499 35,500  Descending FlightAware UK
Fri 23:09:42 52.8992 1.6085 110° East 433 498 37,000  Climbing FlightAware ADS-B
Fri 23:09:58 52.8835 1.6726 110° East 436 502 35,500  Descending FlightAware UK
Fri 23:10:12 52.8753 1.6996 110° East 434 499 37,000  Climbing FlightAware ADS-B
Fri 23:10:28 52.8595 1.7637 110° East 432 497 35,500  Descending FlightAware UK
Fri 23:10:43 52.8507 1.7937 110° East 435 501 37,000  Climbing FlightAware ADS-B
Fri 23:11:04 52.8305 1.8736 110° East 432 497 35,500  Descending FlightAware UK
Fri 23:11:13 52.8265 1.8857 110° East 436 502 37,000  Climbing FlightAware ADS-B
Fri 23:11:34 52.8066 1.9641 110° East 434 499 35,500  Descending FlightAware UK
Fri 23:11:43 52.8022 1.9786 110° East 437 503 37,000  Climbing FlightAware ADS-B
Fri 23:11:58 52.7870 2.0384 110° East 442 509 35,500  Descending FlightAware UK
Fri 23:12:13 52.7778 2.0709 110° East 439 505 37,000  Climbing FlightAware ADS-B
Fri 23:12:34 52.7576 2.1490 110° East 442 509 35,500  Descending FlightAware UK
Fri 23:12:44 52.7526 2.1656 110° East 439 505 37,000  Climbing FlightAware ADS-B
Fri 23:13:04 52.7332 2.2400 110° East 442 509 35,500  Descending FlightAware UK
Fri 23:13:15 52.7279 2.2587 110° East 440 506 37,000  Climbing FlightAware ADS-B
Fri 23:13:34 52.7085 2.3316 110° East 446 513 35,500  Descending FlightAware UK
Fri 23:13:45 52.7033 2.3505 110° East 441 507 37,000  Climbing FlightAware ADS-B
Fri 23:14:10 52.6786 2.4422 110° East 446 513 35,500 -2,093 Descending FlightAware UK
Fri 23:14:28 52.6637 2.4972 114° Southeast 448 516 35,500 2,813 Level FlightAware UK
Fri 23:14:42 52.6580 2.5210 114° Southeast 440 506 37,000 4,500 Climbing FlightAware ADS-B
Fri 23:14:48 52.6517 2.5428 115° Southeast 441 507 37,000 -3,913 Level FlightAware ADS-B
Fri 23:15:05 52.6334 2.6084 115° Southeast 448 516 35,500 -2,571 Descending FlightAware UK
Fri 23:15:23 52.6185 2.6633 114° Southeast 448 516 35,500 4,286 Level FlightAware UK
Fri 23:15:26 52.6199 2.6602 114° Southeast 441 507 37,000  Climbing FlightAware ADS-B
Fri 23:15:47 52.5985 2.7365 114° Southeast 446 513 35,500 -2,308 Descending FlightAware UK
Fri 23:16:05 52.5834 2.7913 114° Southeast 444 511 35,500 4,500 Level FlightAware UK
Fri 23:16:07 52.5880 2.7780 114° Southeast 441 507 37,000  Climbing FlightAware ADS-B
Fri 23:16:28 52.5634 2.8638 114° Southeast 442 509 35,500 -2,308 Descending FlightAware UK
Fri 23:16:46 52.5483 2.9186 114° Southeast 442 509 35,500 4,737 Level FlightAware UK
Fri 23:16:47 52.5550 2.8990 114° Southeast 443 510 37,000  Climbing FlightAware ADS-B
Fri 23:17:05 52.5329 2.9741 114° Southeast 444 511 35,500 -2,571 Descending FlightAware UK
Fri 23:17:22 52.5179 3.0284 114° Southeast 444 511 35,500 4,091 Level FlightAware UK
Fri 23:17:27 52.5210 3.0230 114° Southeast 444 511 37,000  Climbing FlightAware ADS-B
Fri 23:17:47 52.4974 3.1024 114° Southeast 446 513 35,500 -2,045 Descending FlightAware UK
Fri 23:18:11 52.4770 3.1759 115° Southeast 446 513 35,500 3,600 Level FlightAware UK
Fri 23:18:12 52.4820 3.1640 115° Southeast 445 512 37,000  Climbing FlightAware ADS-B
Fri 23:18:29 52.4616 3.2310 115° Southeast 448 516 35,500 -2,571 Descending FlightAware UK
Fri 23:18:47 52.4461 3.2861 115° Southeast 450 518 35,500 3,913 Level FlightAware UK
Fri 23:18:52 52.4490 3.2840 115° Southeast 446 513 37,000  Climbing FlightAware ADS-B
Fri 23:19:11 52.4253 3.3595 115° Southeast 452 520 35,500 -2,500 Descending FlightAware UK
Fri 23:19:28 52.4101 3.4132 115° Southeast 446 513 35,500 3,462 Level FlightAware UK
Fri 23:19:37 52.4100 3.4230 115° Southeast 445 512 37,000  Climbing FlightAware ADS-B
Fri 23:19:53 52.3890 3.4875 115° Southeast 450 518 35,500 -2,647 Descending FlightAware UK
Fri 23:20:11 52.3732 3.5429 115° Southeast 454 522 35,500 3,750 Level FlightAware UK
Fri 23:20:17 52.3760 3.5440 115° Southeast 444 511 37,000  Climbing FlightAware ADS-B
Fri 23:20:35 52.3524 3.6159 115° Southeast 452 520 35,500  Descending FlightAware UK
Fri 23:20:57 52.3420 3.6650 115° Southeast 444 511 37,000  Climbing FlightAware ADS-B
Fri 23:21:17 52.3161 3.7435 115° Southeast 450 518 35,500  Descending FlightAware UK
Fri 23:21:42 52.3030 3.8050 115° Southeast 444 511 37,000  Climbing FlightAware ADS-B
Fri 23:21:59 52.2796 3.8707 115° Southeast 452 520 35,500  Descending FlightAware UK
Fri 23:22:22 52.2680 3.9270 115° Southeast 444 511 37,000  Climbing FlightAware ADS-B
Fri 23:22:41 52.2429 3.9977 115° Southeast 450 518 35,500  Descending FlightAware UK
Fri 23:23:02 52.2340 4.0490 115° Southeast 444 511 37,000  Climbing FlightAware ADS-B
Fri 23:23:05 52.2219 4.0702 115° Southeast 452 520 35,500 -6,000 Descending FlightAware UK
Fri 23:23:17 52.2114 4.1064 115° Southeast 452 520 35,500  Level FlightAware UK
Fri 23:23:35 52.1957 4.1608 115° Southeast 454 522 35,500 3,000 Level FlightAware UK
Fri 23:23:47 52.1960 4.1820 115° Southeast 442 509 37,000  Climbing FlightAware ADS-B
Fri 23:24:05 52.1697 4.2505 115° Southeast 450 518 35,500  Descending FlightAware UK
Fri 23:24:27 52.1610 4.3030 116° Southeast 441 507 37,000  Climbing FlightAware ADS-B
Fri 23:24:29 52.1482 4.3229 116° Southeast 454 522 35,500 -3,462 Descending FlightAware UK
Fri 23:24:53 52.1269 4.3945 116° Southeast 450 518 35,500 2,368 Level FlightAware UK
Fri 23:25:07 52.1260 4.4220 116° Southeast 440 506 37,000  Climbing FlightAware ADS-B
Fri 23:25:11 52.1109 4.4480 116° Southeast 450 518 35,500 -5,625 Descending FlightAware UK
Fri 23:25:23 52.1004 4.4838 116° Southeast 450 518 35,500  Level FlightAware UK
Fri 23:25:41 52.0845 4.5378 116° Southeast 448 516 35,500 3,103 Level FlightAware UK
Fri 23:25:52 52.0860 4.5590 116° Southeast 439 505 37,000  Climbing FlightAware ADS-B
Fri 23:26:11 52.0583 4.6269 116° Southeast 446 513 35,500  Descending FlightAware UK
Fri 23:26:32 52.0530 4.6740 116° Southeast 438 504 37,000  Climbing FlightAware ADS-B
Fri 23:26:35 52.0370 4.6976 116° Southeast 448 516 35,500 -6,000 Descending FlightAware UK
Fri 23:26:47 52.0263 4.7330 116° Southeast 448 516 35,500  Level FlightAware UK
Fri 23:27:11 52.0061 4.8045 115° Southeast 446 513 35,500 3,000 Level FlightAware UK
Fri 23:27:17 52.0150 4.8040 115° Southeast 438 504 37,000  Climbing FlightAware ADS-B
Fri 23:27:35 51.9849 4.8750 115° Southeast 446 513 35,500 -2,500 Descending FlightAware UK
Fri 23:27:53 51.9698 4.9286 115° Southeast 444 511 35,500 4,091 Level FlightAware UK
Fri 23:27:57 51.9780 4.9260 115° Southeast 438 504 37,000 1,837 Climbing FlightAware ADS-B
Fri 23:28:42 51.9380 5.0630 115° Southeast 439 505 37,000  Level FlightAware ADS-B
Fri 23:29:22 51.9050 5.1730 116° Southeast 440 506 37,000  Level FlightAware ADS-B
Fri 23:30:02 51.8690 5.2930 116° Southeast 440 506 37,000  Level FlightAware ADS-B
Fri 23:30:47 51.8290 5.4260 116° Southeast 441 507 37,000  Level FlightAware ADS-B
Fri 23:31:27 51.7920 5.5460 116° Southeast 443 510 37,000 -2,143 Level FlightAware ADS-B
Fri 23:31:29 51.7757 5.5655 116° Southeast 442 509 35,500 -4,500 Descending FlightAware UK
Fri 23:31:47 51.7573 5.6170 116° Southeast 446 513 35,500  Level FlightAware UK
Fri 23:32:05 51.7368 5.6674 123° Southeast 446 513 35,500 3,600 Level FlightAware UK
Fri 23:32:12 51.7520 5.6800 123° Southeast 444 511 37,000  Climbing FlightAware ADS-B
Fri 23:32:29 51.7177 5.7409 123° Southeast 446 513 35,500 -2,571 Descending FlightAware UK
Fri 23:32:47 51.7009 5.7933 117° Southeast 444 511 35,500 3,913 Level FlightAware UK
Fri 23:32:52 51.7150 5.7980 117° Southeast 445 512 37,000 2,000 Climbing FlightAware ADS-B
Fri 23:33:32 51.6790 5.9150 116° Southeast 446 513 37,000  Level FlightAware ADS-B
Fri 23:34:17 51.6370 6.0490 117° Southeast 446 513 37,000  Level FlightAware ADS-B
Fri 23:34:57 51.6000 6.1710 116° Southeast 447 514 37,000  Level FlightAware ADS-B
Fri 23:35:37 51.5630 6.2860 117° Southeast 447 514 37,000 -353 Level FlightAware ADS-B
Fri 23:36:22 51.5210 6.4230 116° Southeast 444 511 36,500 -1,553 Descending FlightAware ADS-B
Fri 23:37:02 51.4830 6.5410 117° Southeast 449 517 34,800 -2,471 Descending FlightAware ADS-B
Fri 23:37:47 51.4420 6.6710 117° Southeast 451 519 33,000 -2,541 Descending FlightAware ADS-B
Fri 23:38:27 51.4040 6.7870 118° Southeast 452 520 31,200 -2,775 Descending FlightAware ADS-B
Fri 23:39:07 51.3670 6.9040 117° Southeast 448 516 29,300 -2,612 Descending FlightAware ADS-B
Fri 23:39:52 51.3240 7.0360 117° Southeast 433 498 27,500 -2,188 Descending FlightAware ADS-B
Fri 23:40:32 51.2860 7.1350 122° Southeast 413 475 26,200 -1,125 Descending FlightAware ADS-B
Fri 23:41:12 51.2300 7.2090 140° Southeast 399 459 26,000 -150 Descending FlightAware ADS-B
Fri 23:41:52 51.1560 7.2700 153° Southeast 388 447 26,000  Level FlightAware ADS-B
Fri 23:42:32 51.0930 7.3210 153° Southeast 384 442 26,000 -675 Level FlightAware ADS-B
Fri 23:43:12 51.0290 7.3720 153° Southeast 385 443 25,100 -1,553 Descending FlightAware ADS-B
Fri 23:43:57 50.9590 7.4270 154° Southeast 389 448 23,800 -1,316 Descending FlightAware ADS-B
Fri 23:46:00 50.7391 7.6953 142° Southeast  Level Estimated
Fri 23:47:00 50.6316 7.8253 142° Southeast  Level Estimated
Fri 23:48:00 50.5240 7.9547 143° Southeast  Level Estimated
Fri 23:49:00 50.4162 8.0835 143° Southeast  Level Estimated
Fri 23:50:00 50.3083 8.2117 143° Southeast  Level Estimated
Fri 23:51:00 50.2002 8.3394 143° Southeast  Level Estimated
Fri 23:52:00 50.0920 8.4664 143° Southeast  Level Estimated
Fri 23:53:00 50.0264 8.5431 143° Southeast  Level Estimated
Fri 23:54:00 50.0264 8.5431 73° East  Level Estimated
Fri 23:55:00 50.0264 8.5431 73° East  Level Estimated
Fri 23:56:00 50.0264 8.5431 73° East  Level Estimated
Fri 23:57:00 50.0264 8.5431 73° East  Level Estimated
Fri 23:58:00 50.0264 8.5431 73° East  Level Estimated
Fri 23:59:00 50.0264 8.5431 73° East  Level Estimated
Sat 00:00:00 50.0264 8.5431 73° East  Level Estimated
Sat 00:01:00 50.0264 8.5431 73° East  Level Estimated
Sat 00:01:17 50.0360 8.4000 73° East 109 125 1,300  Level FlightAware ADS-B
Sat 00:01:47 50.0410 8.4200 69° East 112 129 1,000 -327 Descending FlightAware ADS-B
Sat 00:02:12 50.0450 8.4380 71° East 112 129 1,000  Level FlightAware ADS-B
Sat 00:04:00 50.0264 8.5431 124° Southeast  Level Estimated
Sat 00:05:00 50.0264 8.5431 124° Southeast  Level Estimated
Sat 00:06:00 50.0264 8.5431 124° Southeast  Level Estimated

Login

Don't have an account? Register now (free) for customized features, flight alerts, and more!